TimeHST,TemperatureF,Dew PointF,Humidity,Sea Level PressureIn,VisibilityMPH,Wind Direction,Wind SpeedMPH,Gust SpeedMPH,PrecipitationIn,Events,Conditions,WindDirDegrees,DateUTC
12:57 AM,76.8,71.1,82,30.01,10.0,Calm,Calm,-,N/A,,Partly Cloudy,0,2013-09-12 10:57:00
1:57 AM,76.8,70.0,79,29.99,10.0,Calm,Calm,-,N/A,,Partly Cloudy,0,2013-09-12 11:57:00
2:49 AM,77.0,69.8,78,29.99,6.2,Calm,Calm,-,N/A,,Mostly Cloudy,0,2013-09-12 12:49:00
2:57 AM,76.8,70.0,79,29.98,10.0,Calm,Calm,-,N/A,,Scattered Clouds,0,2013-09-12 12:57:00
3:04 AM,77.0,71.6,83,29.99,6.2,Calm,Calm,-,N/A,,Mostly Cloudy,0,2013-09-12 13:04:00
3:57 AM,76.8,71.1,82,29.97,10.0,NW,4.6,-,N/A,,Mostly Cloudy,310,2013-09-12 13:57:00
5:57 AM,76.8,72.0,85,29.98,10.0,Calm,Calm,-,N/A,,Mostly Cloudy,0,2013-09-12 15:57:00
6:49 AM,77.0,71.6,83,30.01,6.2,NNE,3.5,-,N/A,,Scattered Clouds,20,2013-09-12 16:49:00
6:57 AM,77.5,71.1,80,29.99,10.0,NNE,5.8,-,N/A,,Scattered Clouds,20,2013-09-12 16:57:00
7:57 AM,77.5,73.0,86,30.01,4.0,NNE,3.5,-,N/A,Rain,Light Rain,20,2013-09-12 17:57:00
8:57 AM,77.5,73.0,86,30.02,10.0,North,4.6,-,N/A,,Overcast,360,2013-09-12 18:57:00
10:15 AM,82.4,73.4,74,30.03,6.0,ENE,5.8,-,N/A,Rain,Light Rain,60,2013-09-12 20:15:00
10:57 AM,84.2,73.9,71,30.01,7.0,NNE,5.8,-,N/A,,Mostly Cloudy,30,2013-09-12 20:57:00
11:57 AM,86.0,73.0,65,30.00,10.0,Variable,5.8,-,N/A,,Mostly Cloudy,0,2013-09-12 21:57:00
12:57 PM,86.0,75.0,70,29.98,10.0,NNE,8.1,-,N/A,,Scattered Clouds,20,2013-09-12 22:57:00
1:57 PM,86.0,73.9,67,29.96,10.0,NNE,9.2,-,N/A,,Mostly Cloudy,20,2013-09-12 23:57:00
2:57 PM,87.8,73.9,63,29.94,10.0,NE,10.4,-,N/A,,Scattered Clouds,40,2013-09-13 00:57:00
3:57 PM,86.0,73.0,65,29.94,10.0,NNE,10.4,-,N/A,,Partly Cloudy,30,2013-09-13 01:57:00
4:57 PM,82.4,73.0,73,29.94,9.0,NNE,10.4,-,N/A,Rain,Light Rain,30,2013-09-13 02:57:00
5:57 PM,80.6,73.0,78,29.94,10.0,NE,9.2,-,N/A,,Overcast,40,2013-09-13 03:57:00
6:57 PM,80.6,72.0,75,29.95,10.0,NNE,8.1,-,N/A,,Scattered Clouds,30,2013-09-13 04:57:00
7:57 PM,80.6,73.0,78,29.97,10.0,NE,9.2,-,N/A,,Scattered Clouds,40,2013-09-13 05:57:00
8:57 PM,78.8,73.0,82,29.98,10.0,NE,8.1,-,N/A,,Mostly Cloudy,50,2013-09-13 06:57:00
9:24 PM,-9999,-9999,N/A,30.00,6.2,NE,9.2,16.1,N/A,,Mostly Cloudy,50,2013-09-13 07:24:00
9:49 PM,-9999,-9999,N/A,30.00,6.2,NE,9.2,18.4,N/A,,Mostly Cloudy,40,2013-09-13 07:49:00
9:57 PM,78.8,72.0,79,29.98,10.0,NE,10.4,17.3,N/A,,Mostly Cloudy,50,2013-09-13 07:57:00
10:45 PM,78.8,73.4,83,29.98,6.2,NE,10.4,19.6,N/A,,Overcast,50,2013-09-13 08:45:00
10:57 PM,78.8,73.0,82,29.97,10.0,NE,9.2,-,N/A,Rain,Light Rain,40,2013-09-13 08:57:00
11:57 PM,78.8,72.0,79,29.95,5.0,NE,6.9,-,N/A,Rain,Light Rain,50,2013-09-13 09:57:00